• In Czech Republic
  • List of Countries
  • For 7 days
  • Water Temperature
  • Satellite Maps
  • Weather Map
  • Weather Widgets
  • user-avatar
    Login

    Hourly Weather Anchorage

    Today, 24 February, Saturday

    Time Temperature Precipitation Wind Pressure Humidity
    00:00 -9°C° 0.3 mm 2 mps 751 mmHg 87%
    01:00 -9°C° 0.3 mm 2 mps 750 mmHg 90%
    02:00 -9°C° 0.3 mm 2 mps 749 mmHg 94%
    03:00 -9°C° 0.4 mm 2 mps 749 mmHg 94%
    04:00 -9°C° 0.4 mm 2 mps 748 mmHg 94%
    05:00 -8°C° 0.4 mm 1 mps 748 mmHg 95%
    06:00 -8°C° 0.3 mm 1 mps 748 mmHg 95%
    07:00 -8°C° 0.3 mm 1 mps 748 mmHg 95%
    08:00 -8°C° 0.3 mm 1 mps 748 mmHg 95%
    09:00 -7°C° 0.1 mm 1 mps 747 mmHg 94%
    10:00 -7°C° 0.1 mm 1 mps 747 mmHg 92%
    11:00 -6°C° 0.1 mm 1 mps 747 mmHg 91%
    12:00 -6°C° 0 mm 1 mps 747 mmHg 90%
    13:00 -4°C° 0 mm 1 mps 746 mmHg 89%
    14:00 -4°C° 0 mm 1 mps 746 mmHg 88%
    15:00 -6°C° 0 mm 1 mps 746 mmHg 89%
    16:00 -6°C° 0 mm 1 mps 747 mmHg 90%
    17:00 -7°C° 0 mm 1 mps 747 mmHg 91%
    18:00 -8°C° 0 mm 1 mps 747 mmHg 91%
    19:00 -8°C° 0 mm 1 mps 747 mmHg 91%
    20:00 -9°C° 0 mm 1 mps 748 mmHg 91%
    21:00 -9°C° 0 mm 1 mps 748 mmHg 91%
    22:00 -10°C° 0 mm 1 mps 749 mmHg 91%
    23:00 -10°C° 0 mm 1 mps 749 mmHg 91%

    Tomorrow, 25 February, Sunday

    Time Temperature Precipitation Wind Pressure Humidity
    00:00 -10°C° 0 mm 1 mps 750 mmHg 92%
    01:00 -10°C° 0 mm 1 mps 750 mmHg 92%
    02:00 -11°C° 0 mm 1 mps 750 mmHg 93%
    03:00 -11°C° 0 mm 1 mps 751 mmHg 93%
    04:00 -11°C° 0 mm 1 mps 751 mmHg 93%
    05:00 -11°C° 0 mm 1 mps 752 mmHg 93%
    06:00 -11°C° 0 mm 1 mps 752 mmHg 92%
    07:00 -11°C° 0 mm 1 mps 752 mmHg 91%
    08:00 -12°C° 0 mm 1 mps 753 mmHg 91%
    09:00 -10°C° 0 mm 1 mps 753 mmHg 89%
    10:00 -9°C° 0 mm 1 mps 753 mmHg 87%
    11:00 -7°C° 0 mm 1 mps 753 mmHg 85%
    12:00 -7°C° 0 mm 1 mps 753 mmHg 84%
    13:00 -6°C° 0 mm 1 mps 752 mmHg 83%
    14:00 -6°C° 0 mm 1 mps 752 mmHg 82%
    15:00 -7°C° 0 mm 1 mps 751 mmHg 82%
    16:00 -8°C° 0 mm 1 mps 751 mmHg 83%
    17:00 -10°C° 0 mm 2 mps 751 mmHg 83%
    18:00 -10°C° 0 mm 2 mps 750 mmHg 82%
    19:00 -10°C° 0 mm 2 mps 749 mmHg 81%
    20:00 -10°C° 0 mm 2 mps 748 mmHg 80%
    21:00 -10°C° 0.1 mm 2 mps 747 mmHg 83%
    22:00 -10°C° 0.1 mm 2 mps 746 mmHg 86%
    23:00 -10°C° 0.1 mm 2 mps 745 mmHg 89%

    Day after tomorrow, 26 February, Monday

    Time Temperature Precipitation Wind Pressure Humidity
    00:00 -10°C° 0.4 mm 2 mps 745 mmHg 91%
    01:00 -9°C° 0.4 mm 1 mps 744 mmHg 93%
    02:00 -9°C° 0.4 mm 1 mps 743 mmHg 95%
    03:00 -8°C° 0.2 mm 1 mps 742 mmHg 95%
    04:00 -8°C° 0.2 mm 1 mps 742 mmHg 94%
    05:00 -8°C° 0.2 mm 1 mps 741 mmHg 94%
    06:00 -8°C° 0.2 mm 2 mps 741 mmHg 93%
    07:00 -7°C° 0.2 mm 2 mps 740 mmHg 92%
    08:00 -6°C° 0.2 mm 2 mps 739 mmHg 92%
    09:00 -6°C° 0.3 mm 2 mps 739 mmHg 92%
    10:00 -5°C° 0.3 mm 2 mps 738 mmHg 92%
    11:00 -5°C° 0.3 mm 2 mps 737 mmHg 92%
    12:00 -5°C° 0.2 mm 2 mps 737 mmHg 92%
    13:00 -5°C° 0.2 mm 2 mps 737 mmHg 92%
    14:00 -4°C° 0.2 mm 2 mps 737 mmHg 92%
    15:00 -5°C° 0.2 mm 2 mps 737 mmHg 92%
    16:00 -5°C° 0.2 mm 2 mps 738 mmHg 93%
    17:00 -6°C° 0.2 mm 2 mps 738 mmHg 93%
    18:00 -4°C° 0.1 mm 1 mps 739 mmHg 93%
    19:00 -4°C° 0.1 mm 1 mps 740 mmHg 93%
    20:00 -6°C° 0.1 mm 1 mps 741 mmHg 92%
    21:00 -6°C° 0.1 mm 1 mps 742 mmHg 91%
    22:00 -7°C° 0.1 mm 1 mps 743 mmHg 89%
    23:00 -8°C° 0.1 mm 1 mps 744 mmHg 87%

    27 February, Tuesday

    Time Temperature Precipitation Wind Pressure Humidity
    00:00 -9°C° 0.1 mm 1 mps 745 mmHg 84%
    01:00 -12°C° 0.1 mm 2 mps 746 mmHg 81%
    02:00 -13°C° 0.1 mm 2 mps 747 mmHg 78%
    03:00 -14°C° 0 mm 2 mps 748 mmHg 78%
    04:00 -13°C° 0 mm 1 mps 749 mmHg 78%
    05:00 -14°C° 0 mm 1 mps 749 mmHg 77%
    06:00 -14°C° 0 mm 1 mps 750 mmHg 79%
    07:00 -14°C° 0 mm 1 mps 750 mmHg 80%
    08:00 -14°C° 0 mm 1 mps 750 mmHg 81%
    09:00 -13°C° 0 mm 1 mps 750 mmHg 80%
    10:00 -11°C° 0 mm 1 mps 750 mmHg 80%
    11:00 -10°C° 0 mm 1 mps 751 mmHg 79%
    12:00 -9°C° 0 mm 1 mps 751 mmHg 79%
    13:00 -9°C° 0 mm 1 mps 751 mmHg 80%
    14:00 -9°C° 0 mm 1 mps 751 mmHg 80%
    15:00 -10°C° 0 mm 1 mps 752 mmHg 84%
    16:00 -12°C° 0 mm 1 mps 752 mmHg 87%
    17:00 -13°C° 0 mm 1 mps 753 mmHg 91%
    18:00 -14°C° 0 mm 1 mps 754 mmHg 90%
    19:00 -15°C° 0 mm 1 mps 755 mmHg 90%
    20:00 -17°C° 0 mm 2 mps 755 mmHg 89%
    21:00 -18°C° 0 mm 2 mps 756 mmHg 88%
    22:00 -18°C° 0 mm 2 mps 757 mmHg 87%
    23:00 -18°C° 0 mm 2 mps 757 mmHg 87%

    28 February, Wednesday

    Time Temperature Precipitation Wind Pressure Humidity
    00:00 -16°C° 0 mm 1 mps 758 mmHg 87%
    01:00 -16°C° 0 mm 1 mps 759 mmHg 87%
    02:00 -17°C° 0 mm 1 mps 759 mmHg 87%
    03:00 -17°C° 0 mm 1 mps 760 mmHg 87%
    04:00 -19°C° 0 mm 2 mps 761 mmHg 87%
    05:00 -19°C° 0 mm 2 mps 762 mmHg 88%
    06:00 -19°C° 0 mm 2 mps 762 mmHg 88%
    07:00 -19°C° 0 mm 2 mps 763 mmHg 87%
    08:00 -19°C° 0 mm 2 mps 764 mmHg 87%
    09:00 -18°C° 0 mm 2 mps 764 mmHg 85%
    10:00 -16°C° 0 mm 2 mps 765 mmHg 83%
    11:00 -14°C° 0 mm 2 mps 765 mmHg 81%
    12:00 -14°C° 0 mm 2 mps 766 mmHg 80%
    13:00 -13°C° 0 mm 2 mps 767 mmHg 80%
    14:00 -12°C° 0 mm 2 mps 767 mmHg 79%
    15:00 -14°C° 0 mm 2 mps 768 mmHg 79%
    16:00 -16°C° 0 mm 3 mps 769 mmHg 80%
    17:00 -17°C° 0 mm 3 mps 770 mmHg 80%
    18:00 -18°C° 0 mm 3 mps 771 mmHg 80%
    19:00 -19°C° 0 mm 3 mps 771 mmHg 79%
    20:00 -21°C° 0 mm 3 mps 772 mmHg 78%
    21:00 -21°C° 0 mm 3 mps 772 mmHg 77%
    22:00 -20°C° 0 mm 2 mps 772 mmHg 75%
    23:00 -20°C° 0 mm 2 mps 772 mmHg 74%

    1 March, Thursday

    Time Temperature Precipitation Wind Pressure Humidity
    00:00 -20°C° 0 mm 2 mps 772 mmHg 73%
    01:00 -20°C° 0 mm 2 mps 772 mmHg 72%
    02:00 -20°C° 0 mm 2 mps 772 mmHg 71%
    03:00 -21°C° 0 mm 2 mps 772 mmHg 70%
    04:00 -21°C° 0 mm 2 mps 772 mmHg 70%
    05:00 -21°C° 0 mm 2 mps 771 mmHg 70%
    06:00 -21°C° 0 mm 2 mps 771 mmHg 69%
    07:00 -20°C° 0 mm 2 mps 771 mmHg 69%
    08:00 -20°C° 0 mm 2 mps 770 mmHg 68%
    09:00 -17°C° 0 mm 2 mps 770 mmHg 68%
    10:00 -15°C° 0 mm 2 mps 769 mmHg 68%
    11:00 -13°C° 0 mm 2 mps 768 mmHg 69%
    12:00 -12°C° 0 mm 2 mps 768 mmHg 69%
    13:00 -10°C° 0 mm 2 mps 767 mmHg 70%
    14:00 -9°C° 0 mm 2 mps 766 mmHg 71%
    15:00 -10°C° 0 mm 2 mps 766 mmHg 72%
    16:00 -12°C° 0 mm 2 mps 765 mmHg 73%
    17:00 -13°C° 0 mm 2 mps 765 mmHg 74%
    18:00 -15°C° 0 mm 2 mps 765 mmHg 71%
    19:00 -16°C° 0 mm 2 mps 764 mmHg 69%
    20:00 -17°C° 0 mm 2 mps 764 mmHg 66%
    21:00 -18°C° 0 mm 2 mps 763 mmHg 65%
    22:00 -18°C° 0 mm 2 mps 763 mmHg 64%
    23:00 -19°C° 0 mm 2 mps 762 mmHg 63%
    Show more